Location: Club d'Astronomie Sirius du Saguenay
(48.5448°N, 71.1471°W)
Time: 22:51:18
(UTC-04:00)

N. Korean satellite - Visible Passes

Search period start: 21 October 2017 00:00
Search period end: 31 October 2017 00:00
Orbit: 459 x 517 km, 97.2° (Epoch: 21 October)

Date Brightness Start Highest point End Pass type
(mag) Time Alt. Az. Time Alt. Az. Time Alt. Az.
21 Oct 6.8 18:16:45 10° SE 18:20:07 46° ENE 18:23:28 10° N visible
21 Oct 9.9 19:52:05 10° WSW 19:53:54 14° W 19:55:43 10° WNW visible
22 Oct 9.0 19:27:29 10° SSW 19:30:22 24° W 19:33:16 10° NW visible
23 Oct 7.7 19:03:34 10° S 19:06:55 44° W 19:10:16 10° NNW visible
24 Oct 10.4 06:28:48 10° ENE 06:29:51 11° E 06:30:54 10° ESE visible
24 Oct 6.4 18:40:03 10° SSE 18:43:32 89° W 18:47:01 10° NNW visible
25 Oct 6.7 18:16:53 10° SE 18:20:13 46° ENE 18:23:33 10° N visible
25 Oct 9.9 19:52:16 10° WSW 19:54:01 13° W 19:55:45 10° WNW visible
26 Oct 9.0 19:27:37 10° SSW 19:30:28 23° W 19:33:20 10° NW visible
27 Oct 9.7 06:50:49 10° NE 06:53:30 20° E 06:56:13 10° SE visible
27 Oct 7.7 19:03:40 10° S 19:07:00 44° W 19:10:20 10° NNW visible
28 Oct 10.3 06:28:44 10° ENE 06:29:56 11° E 06:31:09 10° ESE visible
28 Oct 6.4 18:40:08 10° SSE 18:43:35 88° WSW 18:47:04 10° NNW visible
29 Oct 6.7 18:16:56 10° SSE 18:20:15 46° ENE 18:23:36 10° N visible
29 Oct 9.9 19:52:23 10° WSW 19:54:04 13° W 19:55:45 10° WNW visible
30 Oct 9.0 19:27:41 10° SSW 19:30:30 23° W 19:33:20 10° NW visible
